Flight Track Log - Related Links

Times and Time Zones

All times are in EDT time to prevent confusion due to time zone crossing. See the CSN3614 flight status page for this flight to view local times or setup timezone preferences in your user account.

Time Position Orientation Groundspeed Altitude Reporting Facility
EDT Latitude Longitude Course Direction KTS MPH feet Rate Location/Type
Thu 05:46:10 AM 39.1590 121.8751 249° West 34,100  Level FlightAware ADS-B
Thu 05:46:40 AM 39.1560 121.8646 249° West 379 436 34,100  Level FlightAware ADS-B
Thu 05:47:03 AM 39.1191 121.7395 360° North 527 606 34,100  Level FlightAware ADS-B
Thu 05:48:19 AM 39.0475 121.5580 360° North 552 635 34,100  Level FlightAware ADS-B
Thu 05:48:35 AM 39.0301 121.5273 360° North 552 635 34,100  Level FlightAware ADS-B
Thu 05:49:20 AM 38.9640 121.4333 228° Southwest 497 572 34,100  Level FlightAware ADS-B
Thu 05:49:50 AM 38.9156 121.3816 220° Southwest 609 701 34,100  Level FlightAware ADS-B
Thu 05:50:20 AM 38.8631 121.3351 215° Southwest 609 701 34,100  Level FlightAware ADS-B
Thu 05:50:51 AM 38.8092 121.2882 214° Southwest 442 509 34,100  Level FlightAware ADS-B
Thu 05:51:21 AM 38.7649 121.2496 214° Southwest 463 533 34,100  Level FlightAware ADS-B
Thu 05:51:33 AM 38.7447 121.2321 360° North 463 533 34,100  Level FlightAware ADS-B
Thu 05:52:19 AM 38.6528 121.1543 360° North 456 525 34,100  Level FlightAware ADS-B
Thu 05:52:27 AM 38.6384 121.1421 360° North 434 499 34,100  Level FlightAware ADS-B
Thu 05:53:20 AM 38.5713 121.0770 217° Southwest 448 516 34,100  Level FlightAware ADS-B
Thu 05:53:47 AM 38.5146 121.0019 360° North 476 548 34,100  Level FlightAware ADS-B
Thu 05:54:21 AM 38.4831 120.9481 233° Southwest 443 510 34,100  Level FlightAware ADS-B
Thu 05:54:50 AM 38.4389 120.8590 238° Southwest 489 563 34,100  Level FlightAware ADS-B
Thu 05:55:21 AM 38.4043 120.7887 238° Southwest 489 563 34,100  Level FlightAware ADS-B
Thu 05:55:50 AM 38.3730 120.7346 234° Southwest 445 512 34,100  Level FlightAware ADS-B
Thu 05:56:21 AM 38.3226 120.6658 227° Southwest 535 616 34,100  Level FlightAware ADS-B
Thu 05:56:50 AM 38.2759 120.6141 221° Southwest 469 540 34,100  Level FlightAware ADS-B
Thu 05:57:20 AM 38.2290 120.5717 215° Southwest 488 562 34,100  Level FlightAware ADS-B
Thu 05:57:51 AM 38.1658 120.5265 209° Southwest 457 526 34,100  Level FlightAware ADS-B
Thu 05:58:20 AM 38.1080 120.4924 205° Southwest 457 526 34,100  Level FlightAware ADS-B
Thu 05:58:51 AM 38.0467 120.4665 198° South 464 534 34,100  Level FlightAware ADS-B
Thu 05:59:20 AM 37.9820 120.4484 192° South 461 531 34,100  Level FlightAware ADS-B
Thu 05:59:50 AM 37.9174 120.4395 186° South 466 536 34,100  Level FlightAware ADS-B
Thu 06:00:20 AM 37.8543 120.4338 184° South 478 550 34,100  Level FlightAware ADS-B
Thu 06:00:50 AM 37.7878 120.4277 360° North 474 545 34,100  Level FlightAware ADS-B
Thu 06:01:21 AM 37.7240 120.4223 360° North 473 544 34,100  Level FlightAware ADS-B
Thu 06:01:51 AM 37.6598 120.4170 184° South 469 540 34,100  Level FlightAware ADS-B
Thu 06:02:21 AM 37.5944 120.4078 186° South 469 540 34,100  Level FlightAware ADS-B
Thu 06:02:50 AM 37.5302 120.3983 187° South 462 532 34,100  Level FlightAware ADS-B
Thu 06:03:21 AM 37.4656 120.3889 187° South 464 534 34,100  Level FlightAware ADS-B
Thu 06:03:50 AM 37.4024 120.3796 187° South 462 532 34,100  Level FlightAware ADS-B
Thu 06:04:20 AM 37.3386 120.3703 187° South 474 545 34,100  Level FlightAware ADS-B
Thu 06:04:50 AM 37.2735 120.3609 187° South 470 541 34,100  Level FlightAware ADS-B
Thu 06:05:21 AM 37.2093 120.3518 186° South 464 534 34,100  Level FlightAware ADS-B
Thu 06:05:50 AM 37.1463 120.3427 187° South 464 534 34,100  Level FlightAware ADS-B
Thu 06:06:20 AM 37.0821 120.3334 187° South 470 541 34,100  Level FlightAware ADS-B
Thu 06:06:50 AM 37.0184 120.3241 187° South 463 533 34,100  Level FlightAware ADS-B
Thu 06:07:20 AM 36.9543 120.3149 187° South 466 536 34,100  Level FlightAware ADS-B
Thu 06:07:50 AM 36.8893 120.3054 187° South 464 534 34,100  Level FlightAware ADS-B
Thu 06:08:21 AM 36.8248 120.2960 187° South 465 535 34,100  Level FlightAware ADS-B
Thu 06:08:50 AM 36.7630 120.2869 187° South 465 535 34,100  Level FlightAware ADS-B
Thu 06:09:21 AM 36.6973 120.2773 187° South 467 537 34,100  Level FlightAware ADS-B
Thu 06:09:51 AM 36.6344 120.2682 187° South 463 533 34,100  Level FlightAware ADS-B
Thu 06:10:20 AM 36.5712 120.2589 187° South 463 533 34,100  Level FlightAware ADS-B
Thu 06:10:50 AM 36.5100 120.2531 184° South 460 529 34,100  Level FlightAware ADS-B
Thu 06:11:20 AM 36.4441 120.2512 181° South 461 531 34,100  Level FlightAware ADS-B
Thu 06:11:50 AM 36.3793 120.2522 179° South 465 535 34,100  Level FlightAware ADS-B
Thu 06:12:21 AM 36.3175 120.2769 162° South 465 535 34,100  Level FlightAware ADS-B
Thu 06:12:51 AM 36.2599 120.3131 153° Southeast 462 532 34,100  Level FlightAware ADS-B
Thu 06:13:20 AM 36.2044 120.3480 153° Southeast 462 532 34,100  Level FlightAware ADS-B
Thu 06:13:51 AM 36.1443 120.3844 154° Southeast 466 536 34,100  Level FlightAware ADS-B
Thu 06:14:20 AM 36.0892 120.4175 154° Southeast 462 532 34,100  Level FlightAware ADS-B
Thu 06:14:51 AM 36.0291 120.4541 154° Southeast 461 531 34,100  Level FlightAware ADS-B
Thu 06:15:20 AM 35.9730 120.4883 154° Southeast 466 536 34,100  Level FlightAware ADS-B
Thu 06:15:50 AM 35.9165 120.5224 154° Southeast 463 533 34,100  Level FlightAware ADS-B
Thu 06:16:20 AM 35.8602 120.5566 154° Southeast 464 534 34,100  Level FlightAware ADS-B
Thu 06:16:51 AM 35.8014 120.5923 154° Southeast 463 533 34,100  Level FlightAware ADS-B
Thu 06:17:21 AM 35.7459 120.6258 154° Southeast 458 527 34,100  Level FlightAware ADS-B
Thu 06:17:50 AM 35.6888 120.6603 154° Southeast 458 527 34,100  Level FlightAware ADS-B
Thu 06:18:20 AM 35.6323 120.6941 154° Southeast 455 524 34,100  Level FlightAware ADS-B
Thu 06:18:50 AM 35.5756 120.7281 154° Southeast 452 520 34,100  Level FlightAware ADS-B
Thu 06:19:21 AM 35.5185 120.7624 154° Southeast 458 527 34,100  Level FlightAware ADS-B
Thu 06:19:50 AM 35.4598 120.7949 156° South 458 527 34,100  Level FlightAware ADS-B
Thu 06:20:21 AM 35.4011 120.8239 158° South 461 531 34,100  Level FlightAware ADS-B
Thu 06:20:49 AM 35.3471 120.8506 360° North 451 519 34,100  Level FlightAware ADS-B
Thu 06:21:21 AM 35.2860 120.8809 158° South 460 529 34,100  Level FlightAware ADS-B
Thu 06:21:51 AM 35.2290 120.9092 158° South 458 527 34,100  Level FlightAware ADS-B
Thu 06:22:20 AM 35.1717 120.9373 158° South 458 527 34,100  Level FlightAware ADS-B
Thu 06:22:51 AM 35.1133 120.9662 158° South 446 513 34,100  Level FlightAware ADS-B
Thu 06:23:20 AM 35.0617 120.9916 158° South 447 514 34,100  Level FlightAware ADS-B
Thu 06:23:50 AM 35.0227 121.0106 158° South 450 518 34,100  Level FlightAware ADS-B
Thu 06:26:00 AM 34.7050 121.0773 170° South  Level Estimated
Thu 06:27:00 AM 34.5584 121.1080 170° South  Level Estimated
Thu 06:28:00 AM 34.4118 121.1385 170° South  Level Estimated
Thu 06:29:00 AM 34.2651 121.1689 170° South  Level Estimated
Thu 06:30:00 AM 34.1185 121.1992 170° South  Level Estimated
Thu 06:31:00 AM 33.9719 121.2294 170° South  Level Estimated
Thu 06:32:00 AM 33.8252 121.2595 170° South  Level Estimated
Thu 06:33:00 AM 33.6785 121.2895 170° South  Level Estimated
Thu 06:34:00 AM 33.5319 121.3194 170° South  Level Estimated
Thu 06:35:00 AM 33.3852 121.3492 170° South  Level Estimated
Thu 06:36:00 AM 33.2385 121.3788 170° South  Level Estimated
Thu 06:37:00 AM 33.0918 121.4084 170° South  Level Estimated
Thu 06:38:00 AM 32.9451 121.4379 170° South  Level Estimated
Thu 06:39:00 AM 32.7984 121.4673 170° South  Level Estimated
Thu 06:40:00 AM 32.6517 121.4966 170° South  Level Estimated
Thu 06:41:00 AM 32.5050 121.5258 170° South  Level Estimated
Thu 06:42:00 AM 32.3582 121.5549 170° South  Level Estimated
Thu 06:43:00 AM 32.2115 121.5839 171° South  Level Estimated
Thu 06:44:00 AM 32.0648 121.6128 171° South  Level Estimated
Thu 06:45:00 AM 31.9180 121.6416 171° South  Level Estimated
Thu 06:46:00 AM 31.7712 121.6704 171° South  Level Estimated
Thu 06:47:00 AM 31.6245 121.6990 171° South  Level Estimated
Thu 06:48:00 AM 31.4777 121.7276 171° South  Level Estimated
Thu 06:49:00 AM 31.3309 121.7560 171° South  Level Estimated
Thu 06:50:00 AM 31.1842 121.7844 171° South  Level Estimated
Thu 06:51:00 AM 31.1428 121.7924 171° South  Level Estimated
Thu 06:52:00 AM 31.1428 121.7924 North  Level Estimated
Thu 06:53:00 AM 31.1428 121.7924 North  Level Estimated
Thu 06:54:00 AM 31.1428 121.7924 North  Level Estimated
Thu 06:55:00 AM 31.1428 121.7924 North  Level Estimated
Thu 06:56:00 AM 31.1428 121.7924 North  Level Estimated
Thu 06:57:00 AM 31.1428 121.7924 North  Level Estimated
Thu 06:58:00 AM 31.1428 121.7924 North  Level Estimated
Thu 06:59:00 AM 31.1428 121.7924 North  Level Estimated
Thu 07:00:00 AM 31.1428 121.7924 North  Level Estimated
Thu 07:01:00 AM 31.1428 121.7924 North  Level Estimated
Thu 07:02:00 AM 31.1428 121.7924 North  Level Estimated
Thu 07:03:00 AM 31.1428 121.7924 North  Level Estimated
Thu 07:04:00 AM 31.1428 121.7924 North  Level Estimated
Thu 07:05:00 AM 31.1428 121.7924 North  Level Estimated
Thu 07:06:00 AM 31.1428 121.7924 North  Level Estimated
Thu 07:07:00 AM 31.1428 121.7924 North  Level Estimated
Thu 07:08:00 AM 31.1428 121.7924 North  Level Estimated
Thu 07:09:00 AM 31.1428 121.7924 North  Level Estimated
Thu 07:10:00 AM 31.1428 121.7924 North  Level Estimated
Thu 07:11:00 AM 31.1428 121.7924 North  Level Estimated
Thu 07:12:00 AM 31.1428 121.7924 North  Level Estimated
Thu 07:13:00 AM 31.1428 121.7924 North  Level Estimated
Thu 07:14:00 AM 31.1428 121.7924 North  Level Estimated
Thu 07:15:00 AM 31.1428 121.7924 North  Level Estimated
Thu 07:16:00 AM 31.1428 121.7924 North  Level Estimated
Thu 07:17:00 AM 31.1428 121.7924 North  Level Estimated
Thu 07:18:00 AM 31.1428 121.7924 North  Level Estimated
Thu 07:19:00 AM 31.1428 121.7924 North  Level Estimated
Thu 07:20:00 AM 31.1428 121.7924 North  Level Estimated
Thu 07:21:00 AM 31.1428 121.7924 North  Level Estimated
Thu 07:22:00 AM 31.1428 121.7924 North  Level Estimated
Thu 07:23:00 AM 31.1428 121.7924 North  Level Estimated
Thu 07:24:00 AM 31.1428 121.7924 North  Level Estimated
Thu 07:25:00 AM 31.1428 121.7924 North  Level Estimated
Thu 07:26:00 AM 31.1428 121.7924 North  Level Estimated
Thu 07:27:00 AM 31.1428 121.7924 North  Level Estimated
Thu 07:28:00 AM 31.1428 121.7924 North  Level Estimated
Thu 07:29:00 AM 31.1428 121.7924 North  Level Estimated
Thu 07:30:00 AM 31.1428 121.7924 North  Level Estimated
Thu 07:31:00 AM 31.1428 121.7924 North  Level Estimated
Thu 07:32:00 AM 31.1428 121.7924 North  Level Estimated
Thu 07:33:00 AM 31.1428 121.7924 North  Level Estimated
Thu 07:34:00 AM 31.1428 121.7924 North  Level Estimated
Thu 07:35:00 AM 31.1428 121.7924 North  Level Estimated
Thu 07:36:00 AM 31.1428 121.7924 North  Level Estimated
Thu 07:37:00 AM 31.1428 121.7924 North  Level Estimated
Thu 07:38:00 AM 31.1428 121.7924 North  Level Estimated
Thu 07:39:00 AM 31.1428 121.7924 North  Level Estimated
Thu 07:40:00 AM 31.1428 121.7924 North  Level Estimated
Thu 07:41:00 AM 31.1428 121.7924 North  Level Estimated

Login

Don't have an account? Register now (free) for customized features, flight alerts, and more!